Overview Statistics Trail Chart Weather Telemetry Raw packets
 

This is the latest recevied weather packets stored in our database for station/object N0OQA. If no packets are shown the sender has not sent any weather packets the latest 10 day(s).

<< 8 9 10 11 12 13 14 >>
Time Temp. Humidity Pressure Rain* Wind** Luminosity Snow
1788573190 22.22° C 79% 1017.4 hPa 0 mm - - -
1788572286 22.78° C 77% 1017.3 hPa 0 mm - - -
1788571986 23.33° C 76% 1017.2 hPa 0 mm - - -
1788571686 23.33° C 75% 1017.1 hPa 0 mm - - -
1788571386 23.33° C 75% 1017 hPa 0 mm - - -
1788570785 24.44° C 74% 1016.8 hPa 0 mm - - -
1788569884 25° C 71% 1016.8 hPa 0 mm - - -
1788569284 25.56° C 70% 1016.6 hPa 0 mm - - -
1788567182 26.11° C 67% 1016.3 hPa 0 mm - - -
1788566881 26.67° C 66% 1016.3 hPa 0 mm - - -
1788565980 26.67° C 66% 1016.1 hPa 0 mm - - -
1788565680 26.67° C 65% 1016 hPa 0 mm - - -
1788565380 27.22° C 65% 1016.1 hPa 0 mm - - -
1788562374 27.78° C 63% 1015.8 hPa 0 mm - - -
1788559970 27.78° C 61% 1015.5 hPa 0 mm - - -
1788559069 28.33° C 60% 1015.3 hPa 0 mm - - -
1788558769 28.33° C 60% 1015.3 hPa 0 mm - - -
1788558469 28.33° C 60% 1015.3 hPa 0 mm - - -
1788556667 28.89° C 60% 1015.2 hPa 0 mm - - -
1788555466 28.89° C 60% 1015.3 hPa 0 mm - - -
1788555166 28.89° C 58% 1015.3 hPa 0 mm - - -
1788554865 29.44° C 56% 1015.4 hPa 0 mm - - -
1788554565 29.44° C 57% 1015.4 hPa 0 mm - - -
1788554265 29.44° C 58% 1015.4 hPa 0 mm - - -
1788553364 28.89° C 59% 1015.4 hPa 0 mm - - -

* Rain since midnight (hover to see other rain measurements)
** Current wind speed in m/s (hover to see current wind gust speed)